FW8128 Weather Reports


Display with metric or nautical units.
time (UTC)temp
F
wind
direction
speed
MPH
gust
MPH
rain 1hr
in
rain 24hr
in
rain mn
in
humidity
%
barometer
mb
20260504194605 80 287 2.0 7.0 0.00 0.00 0.00 37 1013.3
20260504194105 80 0 1.0 7.0 0.00 0.00 0.00 34 1013.4
20260504193605 80 152 2.0 5.0 0.00 0.00 0.00 37 1013.4
20260504193105 80 296 2.0 6.0 0.00 0.00 0.00 37 1013.5
20260504192606 80 278 2.0 7.0 0.00 0.00 0.00 35 1013.6
20260504192333 80 305 2.0 7.0 0.00 0.00 0.00 36 1013.6
20260504191602 79 0 1.0 6.0 0.00 0.00 0.00 36 1013.7
20260504191102 79 205 2.0 6.0 0.00 0.00 0.00 36 1013.8
20260504190559 79 115 1.0 8.0 0.00 0.00 0.00 36 1013.9
20260504190331 78 318 2.0 8.0 0.00 0.00 0.00 36 1014.0
20260504185557 78 150 2.0 6.0 0.00 0.00 0.00 36 1014.0
20260504185057 78 0 1.0 5.0 0.00 0.00 0.00 36 1014.1
20260504184556 77 0 1.0 5.0 0.00 0.00 0.00 38 1014.0
20260504184058 77 296 2.0 7.0 0.00 0.00 0.00 40 1014.1
20260504183557 76 240 2.0 7.0 0.00 0.00 0.00 37 1014.2
20260504183057 76 313 3.0 7.0 0.00 0.00 0.00 38 1014.2
20260504182557 77 299 3.0 8.0 0.00 0.00 0.00 37 1014.3
20260504182100 77 254 2.0 8.0 0.00 0.00 0.00 37 1014.3
20260504182056 78 253 2.0 7.0 0.00 0.00 0.00 37 1014.3
20260504181325 78 331 2.0 7.0 0.00 0.00 0.00 37 1014.3
20260504180555 78 329 2.0 6.0 0.00 0.00 0.00 38 1014.3
20260504180055 77 30 1.0 5.0 0.00 0.00 0.00 38 1014.2
20260504175555 77 212 2.0 6.0 0.00 0.00 0.00 39 1014.3
20260504175055 77 74 2.0 6.0 0.00 0.00 0.00 39 1014.2
20260504174826 77 0 2.0 6.0 0.00 0.00 0.00 38 1014.4
20260504174055 77 340 1.0 5.0 0.00 0.00 0.00 40 1014.5
20260504173828 77 0 2.0 6.0 0.00 0.00 0.00 38 1014.7
20260504173055 76 309 2.0 8.0 0.00 0.00 0.00 40 1014.7
20260504172556 76 318 1.0 8.0 0.00 0.00 0.00 39 1014.7
20260504172056 76 109 1.0 5.0 0.00 0.00 0.00 38 1014.8
20260504171555 76 292 1.0 5.0 0.00 0.00 0.00 38 1014.8
20260504171055 75 0 1.0 5.0 0.00 0.00 0.00 39 1014.9
20260504170824 75 139 2.0 5.0 0.00 0.00 0.00 37 1015.0
20260504151045 71 0 1.0 6.0 0.00 0.00 0.00 45 1016.7
20260504150545 70 249 1.0 6.0 0.00 0.00 0.00 47 1016.6
20260504141043 65 0 1.0 6.0 0.00 0.00 0.00 59 1016.9
20260504140540 65 0 2.0 6.0 0.00 0.00 0.00 61 1016.9
20260504130536 59 0 0.0 4.0 0.00 0.00 0.00 69 1017.2
20260504110513 41 244 1.0 2.0 0.00 0.00 0.00 95 1017.2
20260504100445 41 0 1.0 1.0 0.00 0.00 0.00 94 1017.0
20260504080414 46 316 2.0 6.0 0.00 0.00 0.00 88 1016.6
20260504050404 46 263 3.0 5.0 0.00 0.00 0.00 87 1016.8
20260504045904 46 187 4.0 5.0 0.00 0.00 0.00 87 1016.7
20260504045404 46 162 4.0 5.0 0.00 0.00 0.00 87 1016.7
20260504044905 46 163 4.0 5.0 0.00 0.00 0.00 87 1016.7
20260504044633 46 164 4.0 5.0 0.00 0.00 0.00 87 1016.7
20260504043902 46 275 3.0 5.0 0.00 0.00 0.00 87 1016.7
20260504043402 46 311 3.0 4.0 0.00 0.00 0.00 87 1016.8
20260504042902 46 293 3.0 5.0 0.00 0.00 0.00 87 1016.8
20260504042402 47 271 3.0 5.0 0.00 0.00 0.00 87 1016.8
20260504041902 47 191 3.0 4.0 0.00 0.00 0.00 86 1016.8
20260504041632 47 259 3.0 5.0 0.00 0.00 0.00 86 1016.9
20260504040902 47 181 3.0 5.0 0.00 0.00 0.00 86 1016.9
20260504040402 47 276 3.0 4.0 0.00 0.00 0.00 85 1016.9
20260504040133 47 307 3.0 4.0 0.00 0.00 0.00 85 1017.0
20260504035402 47 308 2.0 4.0 0.00 0.00 0.00 85 1016.9
20260504034900 47 291 2.0 3.0 0.00 0.00 0.00 84 1017.0
20260504034401 47 303 2.0 3.0 0.00 0.00 0.00 83 1017.0
20260504033859 48 271 2.0 3.0 0.00 0.00 0.00 82 1017.0
20260504033359 48 299 1.0 2.0 0.00 0.00 0.00 82 1017.0
20260504032859 48 255 1.0 2.0 0.00 0.00 0.00 81 1017.1
20260504032359 48 264 1.0 2.0 0.00 0.00 0.00 81 1017.1
20260504031900 48 235 1.0 2.0 0.00 0.00 0.00 81 1017.1
20260504031400 48 258 1.0 2.0 0.00 0.00 0.00 81 1017.0
20260504030859 48 251 1.0 2.0 0.00 0.00 0.00 81 1017.0
20260504030400 48 0 0.0 2.0 0.00 0.00 0.00 81 1017.0
20260504025900 48 236 0.0 2.0 0.00 0.00 0.00 81 1017.0
20260504025400 49 242 0.0 2.0 0.00 0.00 0.00 81 1016.9
20260504024904 49 0 1.0 2.0 0.00 0.00 0.00 81 1016.9
20260504024859 49 230 1.0 2.0 0.00 0.00 0.00 81 1016.8
20260504023855 49 240 1.0 2.0 0.00 0.00 0.00 81 1016.7
20260504023355 49 228 0.0 2.0 0.00 0.00 0.00 80 1016.7
20260504022854 49 0 0.0 2.0 0.00 0.00 0.00 80 1016.6
20260504022351 50 264 1.0 2.0 0.00 0.00 0.00 79 1016.6
20260504022126 50 266 0.0 2.0 0.00 0.00 0.00 78 1016.4
20260504021851 50 272 1.0 2.0 0.00 0.00 0.00 78 1016.5
20260504020852 50 259 0.0 2.0 0.00 0.00 0.00 77 1016.4
20260504020351 51 0 0.0 2.0 0.00 0.00 0.00 76 1016.4
20260504015851 51 0 0.0 2.0 0.00 0.00 0.00 76 1016.3
20260504015352 51 274 0.0 2.0 0.00 0.00 0.00 75 1016.3
20260504014851 51 270 0.0 2.0 0.00 0.00 0.00 75 1016.2
20260504014352 51 265 0.0 2.0 0.00 0.00 0.00 74 1016.2
20260504013852 51 0 1.0 3.0 0.00 0.00 0.00 74 1016.1
20260504013352 51 0 1.0 3.0 0.00 0.00 0.00 73 1016.0
20260504012852 51 254 1.0 2.0 0.00 0.00 0.00 70 1015.9
20260504012352 51 262 1.0 3.0 0.00 0.00 0.00 70 1015.9
20260504011850 51 314 1.0 3.0 0.00 0.00 0.00 70 1015.9
20260504011621 52 0 1.0 2.0 0.00 0.00 0.00 68 1015.9
20260504010851 52 310 1.0 2.0 0.00 0.00 0.00 67 1015.8
20260504010350 52 316 1.0 2.0 0.00 0.00 0.00 67 1015.7
20260504005851 53 301 0.0 1.0 0.00 0.00 0.00 66 1015.7
20260504005350 53 308 1.0 3.0 0.00 0.00 0.00 64 1015.6
20260504005120 53 305 2.0 3.0 0.00 0.00 0.00 64 1015.5
20260504004348 54 326 2.0 3.0 0.00 0.00 0.00 62 1015.6
20260504003847 54 324 1.0 3.0 0.00 0.00 0.00 61 1015.6
20260504003345 55 308 0.0 2.0 0.00 0.00 0.00 59 1015.5
20260504002844 55 0 0.0 0.0 0.00 0.00 0.00 58 1015.4
20260504002344 56 0 0.0 0.0 0.00 0.00 0.00 57 1015.3
20260504001848 57 0 0.0 0.0 0.00 0.00 0.00 54 1015.2
20260504001844 57 0 0.0 0.0 0.00 0.00 0.00 55 1015.3
20260504001116 58 0 0.0 0.0 0.00 0.00 0.00 52 1015.1
20260504000346 58 0 0.0 0.0 0.00 0.00 0.00 52 1015.1
20260503235841 59 0 0.0 0.0 0.00 0.00 0.00 52 1015.1
20260503235613 60 0 0.0 0.0 0.00 0.00 0.00 51 1015.1
20260503234841 60 0 0.0 0.0 0.00 0.00 0.00 49 1015.1
20260503234342 61 0 0.0 0.0 0.00 0.00 0.00 48 1015.1
20260503234116 62 0 0.0 0.0 0.00 0.00 0.00 46 1015.1
20260503233841 62 0 0.0 0.0 0.00 0.00 0.00 47 1015.1
20260503232842 63 0 0.0 0.0 0.00 0.00 0.00 44 1015.0
20260503232342 63 0 0.0 3.0 0.00 0.00 0.00 43 1015.0
20260503231842 64 0 0.0 4.0 0.00 0.00 0.00 42 1015.0
20260503231342 64 0 1.0 5.0 0.00 0.00 0.00 41 1015.0
20260503230844 64 0 1.0 5.0 0.00 0.00 0.00 39 1015.0
20260503230339 64 253 1.0 5.0 0.00 0.00 0.00 41 1015.0
20260503225840 65 0 0.0 2.0 0.00 0.00 0.00 41 1015.0
20260503225608 65 0 1.0 6.0 0.00 0.00 0.00 39 1015.1
20260503224837 65 230 1.0 6.0 0.00 0.00 0.00 38 1015.1
20260503224336 65 0 1.0 5.0 0.00 0.00 0.00 39 1015.1
20260503223837 65 0 2.0 9.0 0.00 0.00 0.00 36 1015.1
20260503223338 65 227 2.0 9.0 0.00 0.00 0.00 36 1015.1
20260503222837 65 249 2.0 6.0 0.00 0.00 0.00 36 1015.2
20260503222338 66 39 1.0 5.0 0.00 0.00 0.00 36 1015.2
20260503221837 66 250 1.0 8.0 0.00 0.00 0.00 36 1015.2
20260503221337 66 0 2.0 8.0 0.00 0.00 0.00 37 1015.2
20260503220835 66 41 2.0 8.0 0.00 0.00 0.00 36 1015.2
20260503220334 67 243 1.0 5.0 0.00 0.00 0.00 37 1015.3
20260503215834 67 246 1.0 5.0 0.00 0.00 0.00 35 1015.2
20260503215335 68 26 1.0 6.0 0.00 0.00 0.00 35 1015.3
20260503214834 68 330 2.0 6.0 0.00 0.00 0.00 34 1015.4
20260503214335 69 0 1.0 4.0 0.00 0.00 0.00 32 1015.4
20260503213835 69 0 1.0 6.0 0.00 0.00 0.00 33 1015.5
20260503213335 68 0 2.0 7.0 0.00 0.00 0.00 34 1015.5
20260503212836 69 27 2.0 7.0 0.00 0.00 0.00 34 1015.4
20260503212335 68 0 1.0 4.0 0.00 0.00 0.00 34 1015.5
20260503211835 68 0 2.0 6.0 0.00 0.00 0.00 34 1015.5
20260503211335 68 261 2.0 6.0 0.00 0.00 0.00 33 1015.6
20260503210832 68 1 2.0 7.0 0.00 0.00 0.00 33 1015.6
20260503210333 67 306 3.0 7.0 0.00 0.00 0.00 33 1015.6
20260503205832 67 0 3.0 8.0 0.00 0.00 0.00 35 1015.6
20260503205330 68 16 3.0 8.0 0.00 0.00 0.00 33 1015.6
20260503204829 67 216 2.0 9.0 0.00 0.00 0.00 35 1015.6
20260503204329 67 7 3.0 9.0 0.00 0.00 0.00 35 1015.7
20260503203830 68 342 2.0 9.0 0.00 0.00 0.00 34 1015.7
20260503203330 67 3 3.0 9.0 0.00 0.00 0.00 35 1015.8
20260503203102 67 246 4.0 9.0 0.00 0.00 0.00 33 1015.8
20260503202328 67 224 3.0 8.0 0.00 0.00 0.00 33 1015.9
20260503201827 67 222 3.0 8.0 0.00 0.00 0.00 34 1016.0
20260503201327 67 13 2.0 8.0 0.00 0.00 0.00 34 1016.1
20260503200827 67 280 2.0 7.0 0.00 0.00 0.00 35 1016.1
20260503200325 67 324 2.0 7.0 0.00 0.00 0.00 35 1016.2
20260503195824 66 2 2.0 7.0 0.00 0.00 0.00 35 1016.2
20260503195321 67 7 2.0 7.0 0.00 0.00 0.00 33 1016.4
20260503194822 66 5 3.0 8.0 0.00 0.00 0.00 36 1016.4